Location: Newsoms
(36.6240°N, 77.1250°W)
Time: 20:13:23
(UTC-04:00)

Daily predictions for brighter satellites

Satellite Brightness Start Highest point End
(mag) Time Altitude Azimuth Time Altitude Azimuth Time Altitude Azimuth
NOSS 3-4 (A) 4.0 20:52:10 10° NNW 20:59:18 75° ENE 21:06:52 10° SE
NOSS 3-4 (C) 4.0 20:52:15 10° NNW 20:59:23 75° ENE 21:06:58 10° SE
Cosmos 1842 Rocket 3.5 20:56:11 10° N 21:00:35 71° E 21:04:53 10° SSE
Cosmos 1605 Rocket 4.1 20:56:03 10° N 21:02:20 75° E 21:08:40 10° SSE
H-2A R/B 4.3 21:02:13 10° ENE 21:02:43 10° ENE 21:03:15 10° NE
Cosmos 1741 Rocket 4.2 20:59:35 10° S 21:04:44 53° ESE 21:09:54 10° NNE
YAOGAN 6 3.5 21:04:53 10° SE 21:08:10 33° ENE 21:11:30 10° N
Cosmos 1818 4.2 21:04:11 10° NNW 21:09:22 43° NE 21:14:29 10° SE
ATLAS 5 CENTAUR R/B 1.7 21:05:13 10° SSW 21:09:47 89° ESE 21:14:46 10° NNE
Spot 2 Rocket 4.2 21:05:07 10° S 21:10:04 57° W 21:15:03 10° NNW
Cosmos 1076 Rocket 4.2 21:13:57 10° SSE 21:17:57 36° E 21:21:57 10° NNE
Spot 1 4.0 21:15:17 10° SSE 21:19:18 64° ENE 21:23:28 10° N
Cosmos 1727 Rocket 4.1 21:13:46 10° S 21:20:05 88° W 21:26:28 10° N
Cosmos 2237 Rocket 3.2 21:23:12 10° NW 21:28:30 43° WSW 21:33:46 10° S
Cosmos 1939 Rocket 3.0 21:25:39 10° S 21:29:38 75° W 21:33:42 10° NNW
Cosmos 1340 Rocket 3.4 21:27:41 10° SSW 21:31:39 60° W 21:35:40 10° N
SJ-11-01 4.5 21:28:03 10° S 21:32:47 76° WSW 21:37:33 10° NNW
CZ-4B DEB 2.5 21:30:53 12° SSE 21:33:36 87° ENE 21:36:34 10° N
Cosmos 2221 2.5 21:30:05 10° N 21:34:28 69° E 21:38:33 12° SSE
Envisat 3.6 21:29:45 10° S 21:34:43 56° W 21:39:43 10° NNW
Tiangong 1 3.2 21:36:07 10° WNW 21:38:26 22° N 21:40:45 10° NE
Meteor 1-29 3.3 21:36:22 10° N 21:39:47 65° WNW 21:43:11 10° SSW
Cosmos 1674 2.5 21:38:51 10° S 21:42:36 78° E 21:46:22 10° N
MetOp-A 4.5 21:40:21 16° SE 21:44:28 50° ENE 21:49:39 10° N
Cosmos 2208 Rocket 4.1 21:40:01 10° NNW 21:45:22 73° ENE 21:49:32 17° SSE
ARGOS 3.8 21:42:43 17° SE 21:46:27 40° ENE 21:51:29 10° N
Okean 3 Rocket 3.9 21:42:01 10° SSW 21:46:29 71° W 21:50:58 10° N
SAR-Lupe-4 3.8 21:43:39 12° S 21:46:54 66° W 21:50:28 10° NNW
Cosmos 2016 Rocket 4.4 21:42:44 10° N 21:48:43 46° E 21:52:56 19° SE
CZ-3B R/B 3.6 21:46:06 10° SW 21:48:45 83° NW 21:56:48 10° NE
SPOT 5 3.7 21:47:02 19° SE 21:49:57 37° ENE 21:54:34 10° N
GPS 2-05 Rocket1 3.4 21:48:21 10° SW 21:51:06 29° SSE 21:51:25 29° SSE
Lacrosse 5 3.0 21:47:12 10° NNW 21:51:48 34° NE 21:55:19 15° E
SL-16 R/B 2.5 21:47:59 10° NNW 21:53:37 68° WSW 21:58:21 15° S
Cosmos 1908 3.1 21:49:46 10° N 21:53:40 86° E 21:56:19 19° S
SPOT 1/Viking Rocket 4.5 21:54:30 20° ESE 21:57:13 33° ENE 22:01:47 10° N
Cosmos 1570 Rocket 4.1 21:51:56 10° NNW 21:57:15 79° WSW 22:01:16 17° S
Cosmos 1766 Rocket 3.4 21:54:51 14° S 21:58:35 73° E 22:02:55 10° N
KORONAS-FOTON 3.7 21:56:38 14° S 21:59:48 84° E 22:03:36 10° N
Atlas Centaur 2 2.5 21:57:14 10° WSW 21:59:57 20° SSW 22:00:27 19° S
Cosmos 1242 Rocket 2.7 22:01:22 10° NNW 22:05:04 71° W 22:07:16 23° S
OAO 1 Rocket 4.4 22:00:29 10° W 22:05:51 75° S 22:10:03 17° E
Cosmos 1328 Rocket 4.3 22:02:33 10° NNE 22:06:31 34° ENE 22:07:53 28° ESE
USA 245 3.4 22:07:27 36° SE 22:08:31 51° ENE 22:12:26 10° N
YAOGAN 11 4.3 22:08:19 28° SE 22:10:31 61° ENE 22:15:00 10° N
Cosmos 1151 Rocket 4.4 22:09:27 10° NNE 22:12:55 22° ENE 22:13:43 21° E
Cosmos 1743 Rocket 3.8 22:13:15 33° SE 22:14:42 46° E 22:18:51 10° NNE
H-2A R/B 4.0 22:13:53 14° E 22:14:49 15° ENE 22:17:12 10° NNE
Delta 2 Rocket 4.2 22:10:57 10° WSW 22:16:32 56° SSE 22:21:09 15° E
USA 234 3.2 22:10:58 10° NE 22:17:32 82° SE 22:24:04 10° SW
Milstar 3 Cent rocket 4.2 22:10:48 10° WSW 22:17:47 39° S 22:25:01 23° SE
NOAA 11 4.4 22:16:47 19° S 22:20:41 66° W 22:26:05 10° NNW
Cosmos 2228 Rocket 3.5 22:16:16 10° N 22:20:42 47° E 22:22:04 36° SE
SL-08 RB Rocket 3.7 22:21:53 35° SSE 22:23:47 74° ENE 22:28:23 10° N
Cosmos 468 Rocket 3.9 22:18:41 10° NNW 22:23:50 78° ENE 22:26:04 34° SSE
Terra 3.0 22:24:00 24° E 22:25:15 27° ENE 22:29:15 10° NNE
ERS-1 Rocket 3.7 22:21:46 17° S 22:25:25 50° W 22:30:19 10° NNW
Cosmos 1459 Rocket 4.5 22:21:08 10° NNW 22:27:16 58° W 22:32:17 15° SSW
H-2A ROCKET BODY 3.1 22:27:32 10° SW 22:31:11 33° SSE 22:42:46 10° E
Nimbus 7 Rocket 4.3 22:27:15 10° NNE 22:33:17 82° ESE 22:37:30 21° S
Sakura Rocket 4.4 22:26:00 10° WSW 22:33:29 43° S 22:35:22 34° SSE
Cosmos 332 Rocket 3.7 22:30:28 10° NNW 22:35:24 83° ENE 22:37:02 43° SSE
Cosmos 2123 Rocket 4.0 22:36:04 19° SSW 22:40:42 78° W 22:46:56 10° N
H-2A R/B 2.0 22:39:05 38° SSE 22:41:13 85° ENE 22:46:40 10° NNW
Cosmos 220 Rocket 4.4 22:39:19 19° SSW 22:42:26 63° WNW 22:46:48 10° N
Cosmos 1626 3.0 22:44:38 36° ENE 22:44:38 36° ENE 22:47:28 10° NNE
Meteor 2-10 4.2 22:38:34 10° N 22:44:14 88° E 22:46:32 38° S
Cosmos 2058 3.0 22:44:53 53° ESE 22:45:02 54° E 22:49:09 10° NNE
Cosmos 2263 Rocket 2.0 22:46:57 33° S 22:49:28 74° ESE 22:55:02 10° NNE
Cosmos 1726 3.0 22:47:51 10° NNW 22:51:19 41° W 22:52:04 36° SW
Cosmos 1300 3.2 22:51:20 10° NNW 22:55:04 52° W 22:55:37 47° SW
SL-14 R/B 4.3 22:53:30 28° SW 22:55:05 43° W 22:58:52 10° N
RESURS DK-1 2.8 22:52:19 10° NW 22:56:21 50° WSW 22:56:54 46° SW
EO 1 Delta rocket 4.2 22:55:37 38° SSW 22:57:12 59° W 23:01:46 10° NNW
Cosmos 1725 Rocket 4.4 23:00:20 10° NNW 23:06:26 58° W 23:09:19 31° SSW
ERBS 3.2 23:03:53 10° NW 23:06:28 48° NNW 23:06:28 48° NNW
deb Chang Zheng 4 3.7 23:05:33 10° NNE 23:09:31 59° ENE 23:09:31 59° ENE
Cosmos 1356 4.3 23:11:37 49° WNW 23:11:37 49° WNW 23:14:46 10° N
Cosmos 2151 3.4 23:11:00 52° WSW 23:11:40 59° W 23:15:56 10° N
Tiangong 1 3.4 23:11:59 10° NW 23:13:23 21° NNW 23:13:23 21° NNW
Cosmos 1354 Rocket 3.9 23:16:06 58° SSW 23:17:12 88° WNW 23:22:27 10° NNE
Cosmos 1844 Rocket 4.0 23:24:43 24° ENE 23:24:43 24° ENE 23:27:55 10° NE
Cosmos 371 Rocket 4.2 23:20:44 10° NW 23:25:09 37° WSW 23:25:49 35° WSW
CZ-4C R/B 2.9 23:28:15 37° ENE 23:28:15 37° ENE 23:32:17 10° NE
Cosmos 1455 3.0 23:24:39 10° N 23:27:33 48° N 23:27:33 48° N
CARTOSAT-1 3.9 23:29:27 57° W 23:29:27 57° W 23:33:35 10° NNW
Cosmos 1464 Rocket 4.1 23:25:52 10° N 23:31:57 58° E 23:32:45 54° ESE
Cosmos 841 Rocket 3.8 23:28:18 10° NNW 23:33:25 55° WSW 23:33:53 53° SW
Lacrosse 5 2.8 23:30:08 10° WNW 23:34:30 37° WSW 23:34:30 37° WSW
Cosmos 1763 Rocket 4.2 23:30:12 10° NW 23:34:55 39° WSW 23:35:29 38° WSW
Cosmos 1943 3.5 23:30:32 10° NNW 23:36:03 55° WSW 23:36:46 51° SW
SL-19 R/B 4.5 23:30:51 10° N 23:36:11 65° WNW 23:37:45 45° SW
Cosmos 1805 Rocket 3.9 23:39:13 62° N 23:39:13 62° N 23:42:52 10° N
Cosmos 1633 Rocket 4.1 23:44:56 38° NE 23:44:56 38° NE 23:47:52 10° NNE
CZ-4C R/B 4.1 23:46:43 53° NNE 23:46:43 53° NNE 23:50:14 10° N
H-2A R/B 3.0 23:51:01 41° WNW 23:51:01 41° WNW 23:54:33 10° NNW
SME Rocket 3.7 23:52:50 51° N 23:52:50 51° N 23:56:15 10° NNW
